Location: Lake Arresoe
(56.0000°N, 12.5000°E)
Time: 04:49:33
(UTC+01:00)

Envisat - Visible Passes

Search period start: 01 December 2023 00:00
Search period end: 11 December 2023 00:00
Orbit: 762 x 764 km, 98.3° (Epoch: 30 November)

Date Brightness Start Highest point End Pass type
(mag) Time Alt. Az. Time Alt. Az. Time Alt. Az.
01 Dec 5.5 03:26:54 10° NNE 03:27:54 16° NNE 03:27:54 16° NNE visible
01 Dec 4.6 05:06:04 10° N 05:08:04 22° N 05:08:04 22° N visible
01 Dec 4.9 06:47:23 10° NNW 06:48:13 11° NW 06:48:13 11° NW visible
01 Dec 5.8 16:31:30 10° WSW 16:33:55 13° W 16:36:21 10° NW visible
02 Dec 6.0 02:50:03 10° NE 02:50:07 10° NE 02:50:07 10° NE visible
02 Dec 4.8 04:28:37 10° NNE 04:30:16 21° N 04:30:16 21° N visible
02 Dec 4.7 06:08:39 10° N 06:10:26 15° NNW 06:10:26 15° NNW visible
03 Dec 5.3 03:51:19 10° NNE 03:52:30 17° NNE 03:52:30 17° NNE visible
03 Dec 4.7 05:30:49 10° N 05:32:39 19° NNW 05:32:39 19° NNW visible
04 Dec 5.7 03:14:14 10° NNE 03:14:43 12° NNE 03:14:43 12° NNE visible
04 Dec 4.8 04:53:14 10° N 04:54:53 20° N 04:54:53 20° N visible
04 Dec 4.9 06:33:53 10° NNW 06:35:02 12° NNW 06:35:02 12° NNW visible
04 Dec 5.7 16:17:46 10° SW 16:20:58 17° W 16:24:10 10° NW visible
05 Dec 5.1 04:15:49 10° NNE 04:17:05 18° NNE 04:17:05 18° NNE visible
05 Dec 4.8 05:55:40 10° N 05:57:15 16° NNW 05:57:15 16° NNW visible
06 Dec 5.5 03:38:36 10° NNE 03:39:19 14° NNE 03:39:19 14° NNE visible
06 Dec 4.8 05:17:55 10° N 05:19:29 18° N 05:19:29 18° N visible
06 Dec 6.1 16:44:49 10° W 16:45:53 11° W 16:46:57 10° WNW visible
07 Dec 5.0 04:40:24 10° N 04:41:42 18° N 04:41:42 18° N visible
07 Dec 4.9 06:20:42 10° NNW 06:21:52 13° NNW 06:21:52 13° NNW visible
08 Dec 5.3 04:03:03 10° NNE 04:03:57 15° NNE 04:03:57 15° NNE visible
08 Dec 4.8 05:42:43 10° N 05:44:06 16° NNW 05:44:06 16° NNW visible
09 Dec 5.8 03:25:54 10° NNE 03:26:10 11° NNE 03:26:10 11° NNE visible
09 Dec 4.9 05:05:04 10° N 05:06:20 17° N 05:06:20 17° N visible
09 Dec 5.0 06:46:21 10° NNW 06:46:30 10° NNW 06:46:30 10° NNW visible
09 Dec 5.8 16:30:27 10° WSW 16:32:54 13° W 16:35:21 10° NW visible
10 Dec 5.2 04:27:35 10° NNE 04:28:35 16° N 04:28:35 16° N visible
10 Dec 4.9 06:07:38 10° N 06:08:44 14° NNW 06:08:44 14° NNW visible
